Wind_Speed
38 36 41 40 33 34 35 37 39 41 41 42 42 42 42 39 36 31 28 27 29 28 30 32 37 36 36 34 34 34 33 34 40 44 38 36 37 38 38 37 37 36 35
36 40 41 34 33 35 36 38 40 42 43 43 43 43 41 38 33 28 31 29 27 29 32 34 35 36 36 38 38 40 42 44 43 41 38 39 40 39 38 38 36 35 32
39 40 34 33 33 35 37 40 42 43 43 43 43 42 39 35 31 31 27 25 27 31 32 32 34 35 36 37 39 41 43 39 37 39 40 39 38 35 34 32 27 24 29
38 31 32 32 34 37 39 41 43 43 42 42 42 42 37 32 29 26 26 26 27 28 30 30 32 34 36 37 38 40 39 35 35 38 39 37 33 30 25 25 24 23 20
32 31 32 34 36 38 40 42 42 42 41 42 42 39 33 29 26 26 25 24 25 27 28 30 33 34 34 35 37 36 33 33 35 36 35 31 28 23 22 22 24 22 22
32 31 32 34 37 39 39 41 41 41 42 41 39 35 32 28 25 23 21 24 25 26 28 30 33 34 34 34 34 31 30 32 32 31 32 31 28 25 23 20 22 19 20
30 30 33 35 37 38 39 40 41 41 40 38 35 34 30 27 24 22 22 23 24 26 29 31 32 32 32 33 32 27 26 26 28 29 30 25 24 21 19 21 21 20 19
28 31 33 37 38 39 40 40 39 39 37 35 34 32 27 26 24 22 21 22 23 26 29 31 31 29 30 31 29 25 25 26 28 27 26 26 23 19 19 23 22 20 20
29 31 36 37 38 40 40 39 37 36 35 34 33 28 25 26 22 21 21 22 23 26 28 30 28 27 28 29 26 24 25 26 27 25 23 20 16 16 16 18 18 19 19
30 35 36 37 39 40 40 37 34 34 33 32 31 26 24 24 21 20 21 22 24 26 27 27 27 25 27 27 25 24 25 26 25 21 18 15 12 11 12 13 14 14 15
32 35 36 38 40 40 38 36 34 32 32 31 28 25 24 22 21 19 20 21 24 26 25 25 25 25 25 25 24 22 23 25 23 18 15 12 10 8 7 9 10 14 12
33 36 38 40 40 38 36 34 33 30 30 28 26 24 23 21 19 18 19 21 23 24 24 24 23 23 23 23 23 21 21 22 22 17 12 10 8 6 6 9 9 9 9
34 36 38 39 36 33 32 32 30 29 28 27 25 23 22 21 20 17 18 19 21 22 22 23 22 22 21 22 22 22 21 20 21 18 12 9 6 4 5 9 5 5 5
33 36 36 33 32 32 32 29 27 28 27 25 23 22 21 20 19 18 17 18 19 19 20 21 21 21 21 21 22 22 21 19 18 17 13 8 7 5 3 3 4 3 4
33 33 32 32 33 32 30 27 27 26 25 24 22 21 21 20 19 17 17 17 17 18 18 20 20 21 20 20 21 21 21 20 18 17 16 13 9 7 6 6 5 3 3
32 32 32 32 31 29 28 28 27 25 25 22 21 21 21 20 19 17 17 16 16 16 16 17 18 19 20 19 19 19 20 19 19 17 15 15 12 9 9 8 7 5 4
32 33 32 32 30 28 28 27 26 26 24 22 21 21 21 20 19 18 17 16 15 15 14 15 16 17 18 19 19 18 18 18 18 17 16 14 14 12 8 9 9 8 5
32 32 32 30 29 28 28 28 27 26 25 23 20 20 20 19 18 18 18 18 16 14 14 14 15 15 16 17 18 18 18 18 17 18 17 16 14 13 11 9 6 8 8
32 33 31 30 30 29 29 28 26 26 25 23 21 20 19 20 19 18 19 19 18 16 15 14 14 14 15 15 17 18 18 18 17 16 17 16 15 14 12 11 8 6 6
35 32 32 32 31 30 29 28 27 26 25 23 21 20 20 20 19 19 19 18 19 18 17 16 16 15 14 15 15 16 17 18 19 18 16 16 16 15 13 11 10 8 6
37 35 34 34 32 31 30 29 27 25 24 22 21 20 20 20 19 19 19 18 19 19 19 18 17 16 16 15 15 16 16 17 18 19 18 16 15 15 14 13 11 9 7
38 37 36 35 34 32 31 29 27 25 24 23 21 21 21 20 19 19 18 18 19 20 20 20 19 18 17 17 16 16 16 16 17 18 19 18 16 15 15 14 12 10 8
39 38 38 36 35 33 31 29 27 25 24 24 23 23 23 22 20 20 19 18 19 20 20 21 21 21 20 18 18 17 17 16 16 17 18 19 18 16 14 14 13 12 10
39 38 38 37 34 32 30 28 27 25 24 24 24 24 24 24 24 22 21 19 19 21 22 22 22 22 23 21 19 19 18 17 17 16 17 18 18 17 15 14 13 12 11
34 32 33 33 30 29 30 28 25 24 23 22 22 23 25 26 27 26 26 27 27 26 24 24 24 24 25 24 22 21 20 18 18 17 16 17 17 17 16 14 14 13 12
32 34 35 32 28 28 29 27 24 23 23 23 23 24 25 26 27 28 28 28 29 31 32 29 27 26 26 26 24 24 22 20 19 18 17 17 17 17 17 15 14 13 12
Wind_Direction
275 294 300 305 308 310 318 319 319 319 319 318 320 321 319 316 313 306 296 287 292 294 295 294 299 302 303 304 303 301 298 297 296 305 300 298 296 294 291 286 281 276 267
288 297 303 310 310 317 319 320 319 320 321 323 324 324 322 318 310 302 299 290 293 296 296 298 300 303 305 307 306 305 303 303 300 302 302 300 297 294 291 287 284 276 270
299 303 309 309 316 317 318 320 321 322 324 325 324 324 323 315 305 298 297 294 291 293 298 300 303 304 307 306 306 306 304 302 299 301 303 301 299 297 293 288 288 284 274
301 306 306 313 314 316 320 322 323 323 325 323 324 324 320 312 304 301 298 298 298 299 301 303 306 307 308 307 308 308 305 302 302 303 303 304 302 302 297 295 287 275 273
300 305 308 311 315 319 321 320 321 322 322 322 322 321 318 312 309 303 303 303 304 304 306 308 309 310 308 308 309 309 306 305 306 306 306 304 302 299 292 289 289 288 274
301 304 309 313 316 317 317 318 320 321 322 320 319 320 316 312 309 307 307 306 307 307 310 312 313 314 313 313 314 312 312 311 311 309 304 300 295 291 294 282 282 282 283
300 305 309 313 314 315 318 319 319 319 319 316 319 318 313 310 309 308 308 307 308 310 313 316 318 316 317 319 319 316 319 321 319 313 308 304 298 300 295 281 286 272 270
302 307 312 313 314 315 316 316 316 317 316 316 318 314 309 308 308 306 307 309 311 315 318 320 320 320 320 323 322 320 324 323 320 317 308 301 290 283 276 276 277 273 262
306 311 311 311 313 314 314 314 314 314 316 315 315 311 307 307 307 305 308 311 315 319 321 322 322 323 325 326 324 323 326 326 325 323 318 315 303 296 293 287 283 277 265
309 310 310 311 312 313 312 312 312 313 314 314 313 309 306 306 306 305 309 312 317 321 324 323 325 328 329 330 328 325 327 331 331 329 330 329 323 318 312 302 306 290 275
307 307 311 312 312 312 312 311 310 312 313 311 311 307 306 307 304 304 309 313 318 324 327 329 329 330 331 332 331 328 331 334 336 335 336 343 341 339 333 313 303 298 293
305 310 311 310 311 312 311 308 306 309 309 309 308 304 305 306 302 302 307 312 318 326 331 333 332 332 334 336 336 335 332 336 340 339 336 342 347 356 1 351 328 305 288
309 310 310 311 313 312 310 306 305 308 308 306 305 304 305 306 303 299 304 309 319 326 334 335 336 335 337 340 343 342 340 339 343 344 333 329 331 339 3 12 9 11 14
309 311 312 313 313 311 307 306 308 307 306 303 303 303 304 303 300 297 300 307 317 327 334 338 341 339 341 345 347 348 346 342 343 346 343 320 309 309 305 13 35 32 340
312 313 313 312 311 307 307 311 306 305 303 301 301 301 301 300 296 292 293 302 313 324 334 339 345 345 345 346 347 349 351 349 346 347 347 343 308 292 280 268 289 279 292
316 315 311 311 307 310 314 308 305 304 302 299 298 298 299 298 295 288 285 291 303 316 326 336 344 348 347 346 346 348 352 354 351 347 348 348 347 307 281 278 276 267 271
316 311 307 308 311 315 312 310 306 304 306 300 295 294 298 297 294 286 282 283 294 306 315 327 339 346 350 349 349 348 349 353 353 352 351 349 352 350 332 278 272 270 261
311 307 307 311 315 311 309 308 305 305 305 301 292 292 297 297 293 285 281 277 285 292 302 312 326 338 345 350 351 351 350 348 351 351 352 351 349 355 354 348 296 266 258
309 308 310 312 313 309 306 305 303 303 302 297 291 294 295 299 295 285 280 273 276 285 292 299 309 323 333 342 347 350 353 352 348 347 349 350 350 347 352 355 351 331 272
308 310 312 311 310 308 303 302 300 300 296 292 289 289 293 299 298 287 280 275 272 277 283 289 295 305 316 327 336 342 348 351 351 348 345 345 347 347 344 342 350 346 335
309 310 309 308 307 306 303 299 296 295 292 287 286 285 287 293 298 292 284 278 271 273 277 281 286 292 301 309 319 328 336 343 347 348 345 340 338 340 341 340 336 336 338
305 305 304 304 305 304 302 298 293 289 286 283 281 282 282 286 290 293 288 281 275 272 274 276 279 284 290 297 305 313 320 329 337 343 344 341 334 330 332 334 333 328 319
301 299 299 300 300 299 299 296 292 287 283 280 277 278 280 282 283 286 288 284 278 276 274 275 276 278 281 287 294 301 309 314 322 332 337 338 335 327 322 324 325 324 318
299 297 297 297 295 294 294 293 291 287 283 280 278 276 276 278 280 280 278 279 285 284 279 276 275 274 276 278 282 290 296 304 309 317 326 330 331 325 317 312 315 316 313
299 300 303 298 293 290 289 287 286 286 285 283 281 280 280 280 281 281 280 276 276 277 279 281 274 272 272 272 273 280 286 291 300 305 313 320 324 322 314 306 304 307 307
295 297 303 302 293 288 285 281 280 281 284 285 284 284 284 283 281 279 281 281 279 277 272 272 276 271 266 267 268 273 279 282 289 297 303 309 314 316 310 301 295 296 299
Height
3114 3111 3108 3104 3100 3095 3090 3085 3080 3074 3068 3062 3055 3048 3042 3035 3029 3026 3023 3019 3015 3012 3008 3004 3000 2995 2990 2985 2980 2975 2969 2964 2955 2950 2946 2941 2937 2932 2929 2926 2923 2923 2923
3106 3103 3100 3096 3091 3086 3082 3077 3071 3065 3058 3050 3044 3038 3032 3026 3022 3018 3014 3010 3007 3004 3001 2996 2992 2987 2982 2977 2971 2965 2959 2953 2945 2939 2937 2932 2927 2923 2918 2915 2913 2912 2912
3099 3095 3091 3087 3083 3078 3074 3068 3061 3055 3048 3041 3035 3030 3023 3018 3014 3010 3006 3002 3000 2996 2992 2988 2983 2979 2974 2969 2963 2956 2949 2943 2937 2931 2926 2921 2917 2912 2909 2906 2904 2903 2902
3092 3088 3084 3079 3075 3070 3065 3059 3052 3046 3040 3034 3028 3022 3016 3011 3006 3003 2999 2996 2992 2988 2985 2981 2976 2971 2965 2959 2953 2947 2939 2934 2929 2922 2917 2911 2907 2904 2901 2898 2897 2895 2896
3084 3080 3075 3072 3067 3061 3056 3050 3044 3038 3033 3027 3020 3014 3009 3004 2999 2996 2992 2989 2985 2982 2978 2973 2968 2963 2957 2951 2944 2938 2931 2925 2920 2913 2908 2904 2901 2899 2896 2894 2891 2888 2887
3076 3072 3068 3063 3058 3053 3048 3042 3036 3031 3025 3019 3014 3007 3001 2997 2994 2990 2987 2983 2979 2975 2971 2967 2961 2954 2948 2942 2937 2929 2923 2917 2911 2906 2901 2897 2894 2892 2889 2887 2885 2883 2882
3068 3064 3059 3055 3050 3045 3039 3033 3027 3022 3018 3012 3005 3000 2995 2990 2987 2984 2981 2977 2974 2969 2965 2959 2954 2947 2941 2935 2928 2922 2917 2911 2905 2900 2894 2890 2887 2886 2884 2881 2880 2878 2877
3060 3056 3052 3047 3042 3036 3031 3025 3020 3015 3010 3004 2999 2994 2989 2984 2981 2978 2975 2972 2968 2963 2958 2952 2947 2941 2935 2928 2921 2916 2911 2905 2900 2895 2888 2884 2880 2878 2877 2875 2873 2871 2870
3053 3049 3044 3038 3033 3027 3022 3017 3012 3007 3003 2997 2992 2986 2983 2978 2976 2972 2969 2966 2962 2958 2952 2946 2941 2935 2929 2923 2916 2911 2906 2901 2895 2888 2883 2878 2874 2873 2871 2868 2867 2866 2865
3046 3041 3036 3030 3025 3020 3014 3008 3003 2998 2994 2989 2985 2980 2977 2973 2970 2967 2964 2960 2957 2953 2947 2941 2935 2930 2924 2918 2911 2906 2901 2896 2890 2884 2880 2875 2872 2870 2868 2866 2864 2862 2861
3037 3033 3027 3022 3017 3012 3006 3002 2996 2990 2985 2982 2978 2974 2971 2967 2963 2961 2958 2955 2951 2947 2942 2937 2931 2925 2920 2914 2908 2903 2898 2892 2887 2881 2877 2873 2871 2868 2866 2865 2863 2860 2858
3028 3024 3019 3014 3009 3003 2997 2994 2989 2982 2979 2975 2971 2968 2964 2961 2958 2956 2953 2950 2947 2942 2937 2932 2927 2922 2916 2911 2905 2900 2895 2890 2884 2879 2875 2872 2870 2867 2865 2863 2861 2858 2857
3020 3015 3010 3005 2999 2995 2990 2986 2982 2975 2972 2968 2965 2961 2958 2955 2952 2951 2948 2945 2942 2938 2933 2928 2923 2918 2913 2908 2902 2897 2892 2887 2883 2878 2874 2871 2869 2867 2865 2862 2860 2859 2857
3012 3007 3001 2995 2992 2987 2983 2978 2973 2970 2965 2962 2959 2955 2952 2950 2947 2945 2943 2941 2937 2933 2929 2925 2920 2915 2910 2905 2900 2895 2890 2886 2881 2877 2873 2870 2868 2866 2864 2862 2861 2859 2858
3003 2998 2993 2989 2984 2981 2975 2969 2966 2963 2959 2955 2952 2949 2947 2944 2942 2940 2938 2936 2933 2929 2925 2921 2917 2912 2907 2902 2898 2893 2889 2884 2880 2876 2872 2868 2866 2864 2863 2862 2860 2859 2857
2996 2991 2987 2982 2977 2972 2966 2963 2960 2956 2952 2949 2946 2943 2941 2938 2936 2935 2933 2932 2929 2926 2922 2918 2914 2910 2905 2901 2897 2893 2888 2884 2879 2875 2872 2868 2864 2862 2860 2860 2859 2858 2856
2989 2984 2979 2975 2969 2963 2960 2956 2952 2948 2945 2942 2939 2937 2935 2933 2930 2929 2928 2926 2924 2921 2919 2915 2912 2908 2904 2900 2896 2892 2887 2883 2879 2875 2871 2868 2864 2861 2858 2857 2856 2856 2855
2981 2977 2972 2966 2960 2956 2953 2949 2945 2941 2938 2935 2933 2931 2929 2926 2924 2923 2922 2920 2919 2917 2915 2912 2909 2905 2902 2898 2895 2890 2886 2882 2878 2874 2871 2867 2864 2861 2858 2855 2853 2853 2853
2973 2969 2963 2957 2953 2949 2945 2941 2938 2934 2931 2929 2927 2924 2922 2920 2918 2916 2915 2914 2913 2911 2909 2908 2906 2903 2900 2896 2893 2889 2885 2881 2877 2874 2870 2867 2863 2860 2858 2855 2853 2851 2850
2964 2959 2954 2949 2945 2941 2937 2934 2930 2927 2924 2922 2920 2918 2916 2914 2912 2910 2909 2908 2907 2906 2904 2903 2901 2899 2897 2894 2891 2887 2884 2880 2876 2873 2869 2866 2863 2860 2857 2855 2853 2851 2850
2953 2949 2945 2941 2937 2933 2929 2926 2922 2920 2917 2915 2914 2912 2910 2908 2906 2904 2902 2901 2901 2900 2899 2898 2896 2894 2893 2890 2888 2885 2882 2878 2875 2871 2868 2864 2862 2859 2856 2854 2852 2851 2849
2944 2940 2935 2932 2928 2924 2921 2917 2914 2912 2910 2908 2906 2905 2903 2902 2900 2898 2896 2895 2894 2893 2892 2891 2890 2889 2887 2886 2884 2881 2879 2876 2873 2869 2866 2863 2860 2857 2855 2852 2850 2849 2848
2933 2929 2925 2922 2918 2915 2911 2908 2905 2903 2901 2900 2898 2897 2896 2894 2893 2892 2891 2889 2887 2887 2886 2885 2884 2883 2882 2881 2879 2877 2875 2872 2870 2867 2864 2860 2857 2855 2853 2850 2848 2847 2846
2922 2918 2914 2911 2908 2905 2902 2899 2897 2895 2893 2891 2890 2889 2888 2887 2885 2885 2884 2883 2881 2880 2879 2878 2877 2876 2875 2875 2874 2872 2870 2868 2866 2863 2861 2858 2855 2852 2850 2848 2846 2845 2843
2911 2908 2904 2900 2897 2895 2893 2890 2888 2886 2885 2883 2882 2880 2879 2878 2877 2876 2875 2874 2873 2872 2871 2870 2869 2868 2867 2867 2867 2866 2865 2863 2861 2859 2857 2854 2851 2849 2847 2845 2844 2842 2841
2902 2898 2894 2891 2888 2886 2883 2881 2879 2878 2876 2875 2873 2872 2870 2869 2867 2866 2866 2864 2863 2862 2862 2861 2860 2859 2859 2859 2859 2858 2858 2857 2856 2854 2852 2850 2848 2845 2843 2842 2840 2839 2838